Regional Weather Roundup
Issued by NWS

Home | Current Version | Previous Version | Text Only | Print | Product List | Glossary Off
Versions: 1 2 3 4 5 6 7 8 9 10 11 12 13 14 15 16 17 18 19 20 21 22 23 24 25 26 27 28 29 30 31 32 33 34 35 36 37 38 39 40 41 42 43 44 45 46 47 48 49 50

000
ASUS43 KMPX 201401
RWRMN
WEATHER ROUNDUP FOR MINNESOTA
NATIONAL WEATHER SERVICE TWIN CITIES/CHANHASSEN MN
900 AM CDT THU JUL 20 2017


NOTE: "FAIR" INDICATES FEW OR NO CLOUDS BELOW 12,000 FEET WITH NO
SIGNIFICANT WEATHER AND/OR OBSTRUCTIONS TO VISIBILITY. N/A MEANS
CURRENT SKY AND/OR WEATHER CONDITIONS ARE NOT AVAILABLE.

MNZ060>063-068>070-201500-
   Twin Cities Metro

CITY           SKY/WX    TMP DP  RH WIND       PRES   REMARKS
TWIN CITIES    CLOUDY    74  67  78 N3        30.01R
ST PAUL        CLOUDY    73  70  90 CALM      30.02R
CRYSTAL        MOSUNNY   71  66  84 SE3       30.00R
BLAINE         PTSUNNY   72  72 100 E3        30.01R FOG
LAKEVILLE      CLOUDY    70  70 100 CALM      30.01S FOG
EDEN PRAIRIE   MOSUNNY   73  70  90 N5        30.00S FOG
SOUTH ST PAUL  CLOUDY    71  71  99 CALM      30.01S FOG
LAKE ELMO      PTSUNNY   70  70 100 CALM      30.03R
$$
MNZ001>005-007-008-013>017-022>024-027-028-201500-
   Northwest Minnesota

CITY           SKY/WX    TMP DP  RH WIND       PRES   REMARKS
BEMIDJI        MOSUNNY   67  64  90 N5        30.02S
HALLOCK        SUNNY     64  59  82 CALM      30.02R
ROSEAU         SUNNY     64  59  82 N6        30.02S
WARROAD        SUNNY     64  55  72 N6        30.03R
CROOKSTON      SUNNY     64  63  94 NE3       30.03R
FOSSTON        SUNNY     66  64  94 N5        30.03R
DETROIT LAKES  CLOUDY    66  64  94 CALM      30.04R
MOORHEAD       MOSUNNY   64  64 100 N3        30.03R
PARK RAPIDS    CLOUDY    68  65  90 SW3       30.02S
MAHNOMEN       FAIR      65  64  97 CALM      30.02S
$$
MNZ006-009>011-018-025>026-201500-
   North Central Minnesota

CITY           SKY/WX    TMP DP  RH WIND       PRES   REMARKS
BAUDETTE       SUNNY     68  62  81 NW9       30.00R
FLAG ISLAND    SUNNY     64  54  68 NW6       30.01R
INTL FALLS     SUNNY     70  59  68 NW7       29.99R
WASKISH        CLOUDY    66  63  88 N5        30.01S
BIG FORK       CLOUDY    66  64  94 NW5       30.01R
LONGVILLE      CLOUDY    70  68  94 CALM      30.02R
CRANE LAKE     SUNNY     66  63  88 N6        29.99R
ORR            CLOUDY    66  61  82 NW6       29.97R
COOK           SUNNY     68  64  88 NW3       29.99S
WALKER         FAIR      68  63  85 NW5       30.02S
$$
MNZ012-019>021-037-201500-
   Northeast Minnesota

CITY           SKY/WX    TMP DP  RH WIND       PRES   REMARKS
DULUTH         MOSUNNY   71  65  81 N10       29.99R
ELY            SUNNY     70  63  78 NW7       29.97S
HIBBING        SUNNY     70  66  87 NW8       30.00R
EVELETH        SUNNY     72  63  72 NW5       30.00R
DULUTH HARBOR  MOSUNNY   72  66  83 S5        29.98R
TWO HARBORS    SUNNY     75  66  73 N7        29.95R
SILVER BAY     SUNNY     73  64  73 NW3       29.94
GRAND MARAIS     N/A     60  55  83 W9        29.91R
G MARAIS ARPRT MOSUNNY   68  57  68 NW7       29.96S
$$
MNZ029>031-032-039>041-046>048-054>057-064-201500-
   West Central Minnesota

CITY           SKY/WX    TMP DP  RH WIND       PRES   REMARKS
FERGUS FALLS   CLOUDY    66  66 100 SE7       30.01S FOG
WHEATON        PTSUNNY   70  66  88 CALM      30.03R FOG
MORRIS         MOSUNNY   72  70  94 CALM      30.02R
ALEXANDRIA     CLOUDY    70  67  90 N5        30.05R
ELBOW LAKE     FOG       66  66 100 CALM      30.03R VSB 3/4
WADENA         MOSUNNY   66  66 100 CALM      30.03R
GLENWOOD       CLOUDY    72  66  83 SW3       30.04R
APPLETON       MOSUNNY   70  66  88 CALM      30.02R FOG
BENSON         CLOUDY    70  66  88 CALM      30.05R
ORTONVILLE     CLOUDY    70  68  94 CALM      30.02R
MADISON        CLOUDY    72  72 100 N3        30.03R
WILLMAR        FAIR      72  70  94 CALM      30.04R
$$
MNZ033>034-036-042>043-049>051-058-059-201500-
   Central Minnesota

CITY           SKY/WX    TMP DP  RH WIND       PRES   REMARKS
ST CLOUD       PTSUNNY   68  67  96 W3        30.02R
SAUK CENTRE    FAIR      69  65  88 CALM      30.04R
PAYNESVILLE    CLOUDY    67  66  99 CALM      30.04R FOG
AITKIN         SUNNY     70  64  83 N6        30.01R
PINE RIVER     SUNNY     66  66 100 CALM      30.05S
BRAINERD       SUNNY     70  66  87 NW7       30.03R
STAPLES        CLOUDY    64  64 100 CALM      30.03R FOG
LONG PRAIRIE   FAIR      70  68  94 W5        30.04R
LITTLE FALLS   SUNNY     70  63  78 NW3       30.03R
LITCHFIELD     CLOUDY    70  70 100 CALM      30.04R FOG
BUFFALO        CLOUDY    69  67  92 CALM      30.03R FOG
MAPLE LAKE     CLOUDY    70  69  98 CALM      30.03R FOG
HUTCHINSON     SUNNY     70  69  97 CALM      30.03S FOG
$$
MNZ037-044-045-052-053-201500-
   East Central Minnesota

CITY           SKY/WX    TMP DP  RH WIND       PRES   REMARKS
PRINCETON      CLOUDY    68  66  94 CALM      30.02R
MORA           CLOUDY    70  64  83 NW6       30.02R
CAMBRIDGE      CLOUDY    70  64  83 CALM      30.00R
RUSH CITY      CLOUDY    68  65  89 CALM      30.01R FOG
MOOSE LAKE     SUNNY     70  64  83 N8        29.99R
HINCKLEY       FAIR      72  68  88 W6        30.01R
CLOQUET        SUNNY     70  63  78 W5        30.01R
MCGREGOR       PTSUNNY   68  64  88 CALM      30.03R
$$
MNZ071>073-080-081-089-090-097-098-201500-
   Southwest Minnesota

CITY           SKY/WX    TMP DP  RH WIND       PRES   REMARKS
MONTEVIDEO     PTSUNNY   72  70  94 N3        30.03R
GRANITE FALLS  CLOUDY    70  69  98 S5        30.04R FOG
CANBY          CLOUDY    73  69  88 CALM      30.04R
MARSHALL       CLOUDY    71  70  96 N5        30.03R FOG
REDWOOD FALLS  CLOUDY    70  67  90 N6        30.01S FOG
OLIVIA         PTSUNNY   70  68  94 CALM      30.02R
PIPESTONE      CLOUDY    73  68  83 E8        30.04R
WINDOM         CLOUDY    72  66  83 NE6       30.04R
WORTHINGTON    CLOUDY    73  68  84 NE10      30.04S
JACKSON        MOSUNNY   72  68  88 CALM      30.04R
TRACY          CLOUDY    71  70  98 CALM      30.04R
SLAYTON        HVY RAIN  71  67  88 CALM      30.05R
$$
MNZ065>067-074>077-082>085-091>093-201500-
   South Central Minnesota

CITY           SKY/WX    TMP DP  RH WIND       PRES   REMARKS
MANKATO        CLOUDY    72  69  90 E3        30.03R
NEW ULM        CLOUDY    72  66  83 E5        30.02R
ST JAMES       MOSUNNY   72  70  94 NE5       30.03R
FAIRMONT       MOSUNNY   73  70  90 N6        30.02S
GLENCOE        MOSUNNY   69  70 100 N3        30.01S FOG
FARIBAULT      CLOUDY    72  70  94 E3        30.03R
OWATONNA       MOSUNNY   73  72  94 E3        30.02R
WASECA         CLOUDY    72  70  94 E5        30.03R FOG
ALBERT LEA     CLOUDY    72  70  94 NE8       30.01R FOG
$$
MNZ078>079-086>088-094>096-201500-
   Southeast Minnesota

CITY           SKY/WX    TMP DP  RH WIND       PRES   REMARKS
ROCHESTER      SUNNY     73  69  87 SE6       30.02S
RED WING       CLOUDY    72  70  94 CALM      30.01R FOG
STANTON        CLOUDY    72  70  91 CALM      30.00S
DODGE CENTER   SUNNY     73  70  88 E3        30.02R
WINONA         PTSUNNY   73  70  88 CALM      30.00R
AUSTIN         PTSUNNY   73  68  83 E7        30.01R
PRESTON        PTSUNNY   72  66  82 CALM      30.02R
$$
ABBREVIATIONS USED IN REMARKS
   TC - TEMPERATURES IN CELSIUS
  WCI - WIND CHILL INDEX
   HX - HEAT INDEX
  VSB - VISIBILITY
$$



USA.gov is the U.S. government's official web portal to all federal, state and local government web resources and services.